Spokane, WA
on Monday, December 24, 2012

Monday
Previous Day Next Day
Daily Summary
 ActualAverageRecord
Temperature
Mean Temperature °F 26°F  
Max Temperature 32°F 31°F 55°F (1919)
Min Temperature 25°F 22°F -12°F (1884)
Degree Days
Heating Degree Days 36 39  
Month to date heating degree days 758 901  
Since 1 July heating degree days 2143 2568  
Cooling Degree Days 0 0  
Month to date cooling degree days 0 0  
Year to date cooling degree days 535 450  
Moisture
Dew Point 29°F   
Average Humidity 96    
Maximum Humidity 100    
Minimum Humidity 92    
Precipitation
Precipitation 0.12 in 0.07 in 0.62 in (1936)
Month to date precipitation 2.44 1.84  
Year to date precipitation 21.18 16.10  
Snow
Snow 1.50 in 0.50 in 6.10 in (2008)
Month to date snowfall 16.1 10.9  
Since 1 July snowfall 22.0 18.4  
Snow Depth 5.00 in   
Wind
Wind Speed 6 mph   
Max Wind Speed 18 mph   
Max Gust Speed 23 mph   
Visibility 3 miles   
Events Fog , Snow   

Key: T is trace of precipitation, MM is missing value
Source: NWS Daily Summary
Time(PST)TemperatureDew PointHumidity Pressure Visibility Wind DirectionWind SpeedGust SpeedPrecipitationEvents Conditions
12:53 AM 30.9°F 30.0°F 96% 29.67 in 1.0 miles SSW 17.3 mph 23.0 mph 0.04 in Snow Light Snow
1:17 AM 30.2°F 28.4°F 93% 29.64 in 1.0 miles SSW 15.0 mph 23.0 mph 0.00 in Snow Light Snow
1:53 AM 30.0°F 28.9°F 96% 29.70 in 1.0 miles South 9.2 mph 18.4 mph 0.00 in Snow Light Snow
2:53 AM 30.0°F 28.9°F 96% 29.72 in 1.0 miles South 8.1 mph - 0.02 in Snow Light Snow
3:53 AM 30.2°F 30.2°F 100% 29.68 in 1.0 miles SSE 4.6 mph - N/A Snow Light Snow
4:53 AM 30.0°F 30.0°F 100% 29.75 in 1.0 miles Calm Calm - 0.03 in Snow Light Snow
5:53 AM 30.0°F 28.9°F 96% 29.78 in 1.0 miles ENE 4.6 mph - 0.01 in Snow Light Snow
6:07 AM 28.4°F 28.4°F 100% 29.74 in 3.0 miles NE 4.6 mph - 0.00 in Snow Light Snow
6:34 AM 28.4°F 28.4°F 100% 29.76 in 1.0 miles NNE 6.9 mph - 0.00 in   Overcast
6:53 AM 28.0°F 28.0°F 100% 29.82 in 1.0 miles North 4.6 mph - 0.00 in Snow Light Snow
7:45 AM 30.2°F 28.4°F 93% 29.80 in 0.5 miles North 5.8 mph - 0.00 in Snow Light Snow
7:53 AM 30.0°F 28.9°F 96% 29.86 in 0.5 miles North 8.1 mph - 0.00 in Snow Light Snow
8:53 AM 28.9°F 28.9°F 100% 29.91 in 0.5 miles NW 6.9 mph - 0.00 in   Mostly Cloudy
9:16 AM 28.4°F 28.4°F 100% 29.88 in 8.0 miles NW 5.8 mph - N/A Fog Patches of Fog
9:53 AM 28.0°F 28.0°F 100% 29.97 in 10.0 miles West 3.5 mph - N/A Fog Patches of Fog
10:19 AM 26.6°F 26.6°F 100% 29.92 in 5.0 miles WSW 8.1 mph - N/A   Mostly Cloudy
10:25 AM 24.8°F 24.8°F 100% 29.92 in 0.5 miles WSW 9.2 mph - N/A   Mostly Cloudy
10:38 AM 24.8°F 24.8°F 100% 29.92 in 0.2 miles WSW 8.1 mph - N/A Fog Light Freezing Fog
10:53 AM 26.1°F 26.1°F 100% 30.00 in 0.2 miles WSW 6.9 mph - N/A Fog Light Freezing Fog
11:53 AM 28.9°F 28.9°F 100% 30.01 in 0.2 miles West 6.9 mph - N/A Fog Light Freezing Fog
12:28 PM 30.2°F 28.4°F 93% 29.95 in 5.0 miles SW 5.8 mph - N/A   Mostly Cloudy
12:53 PM 30.9°F 30.0°F 96% 30.03 in 10.0 miles WSW 6.9 mph - N/A Fog Mostly Cloudy
1:33 PM 30.2°F 28.4°F 93% 29.99 in 10.0 miles WSW 5.8 mph - N/A Fog Mostly Cloudy
1:53 PM 30.0°F 28.9°F 96% 30.06 in 10.0 miles WSW 8.1 mph - N/A Fog Patches of Fog
2:38 PM 28.4°F 26.6°F 93% 30.02 in 5.0 miles WSW 10.4 mph - N/A   Mostly Cloudy
2:50 PM 26.6°F 26.6°F 100% 30.02 in 5.0 miles WSW 8.1 mph - N/A   Mostly Cloudy
2:53 PM 27.0°F 27.0°F 100% 30.10 in 2.5 miles WSW 8.1 mph - N/A   Mostly Cloudy
3:25 PM 28.4°F 28.4°F 100% 30.04 in 0.2 miles SW 10.4 mph - N/A Fog Light Freezing Fog
3:53 PM 30.0°F 30.0°F 100% 30.12 in 1.5 miles SW 6.9 mph - N/A   Overcast
3:55 PM 30.2°F 30.2°F 100% 30.05 in 7.0 miles SW 8.1 mph - N/A   Overcast
4:53 PM 30.9°F 30.0°F 96% 30.14 in 5.0 miles SW 8.1 mph - N/A   Overcast
5:40 PM 30.2°F 28.4°F 93% 30.08 in 10.0 miles SSW 3.5 mph - N/A   Overcast
5:44 PM 28.4°F 28.4°F 100% 30.08 in 0.5 miles South 4.6 mph - N/A   Overcast
5:53 PM 28.9°F 28.9°F 100% 30.15 in 0.5 miles South 3.5 mph - N/A   Overcast
6:53 PM 28.9°F 28.9°F 100% 30.16 in 0.5 miles SSE 4.6 mph - N/A   Overcast
7:53 PM 28.9°F 28.9°F 100% 30.16 in 0.5 miles SSE 6.9 mph - N/A   Overcast
8:53 PM 28.9°F 28.9°F 100% 30.17 in 0.5 miles SSE 6.9 mph - N/A   Overcast
9:53 PM 28.0°F 28.0°F 100% 30.18 in 0.5 miles SSE 4.6 mph - N/A   Overcast
10:53 PM 28.0°F 28.0°F 100% 30.19 in 0.5 miles SSW 4.6 mph - N/A   Overcast
11:53 PM 28.9°F 28.9°F 100% 30.19 in 0.5 miles Calm Calm - N/A   Overcast
Moon Phase
Dec. 24 Dec. 28 Jan. 04 Jan. 11 Jan. 18
Sunrise:07:37 AM (PST) Moon Rise:01:38 PM (PST)
Sunset:04:03 PM (PST) Moon Set:04:14 AM (PST)

Copyright © 2014 The Weather Underground, Inc.